Powrót do katalogu

COSMOS 860 COOLANT

AktywnyLEO
NORAD 29195·DEBRIS·🇷🇺 Russia

Wystrzelony Oct 17, 1976 z Baikonur Cosmodrome

Loading…

Następne Przeloty (najbliższe 24 godziny)

TLE

Starzejące sięSource: Space-Track

Epoka: Sep 11, 2026, 06:52 UTC

1 29195U 76103H   26254.28646960  .00000096  00000-0  15770-3 0  9991
2 29195  64.6973 135.7647 0052048 178.5055 181.6169 13.87326719651614

Śledź COSMOS 860 COOLANT w czasie rzeczywistym z AllMySat

Download on the App Store